OBJECT L, 64886

Orbit data source: Space-Track

You're viewing an Uncataloged Satellite

Recently launched and/or uncataloged satellites may have evolving metadata. Metadata may include but not limited to: Owner, Maufacturer, Bus, Motor, and Mission.

OBJECT L, 64886 is a satellite in SSO that was launched on Fri, 25 Jul 2025 UTC via a SOYUZ-2-1B launch vehicle from the Vostochny Cosmodrome (VOSTO). Unknown objects in Earth's orbit typically refer to objects detected orbiting the Earth but have not yet been identified or cataloged. These objects could be anything from previously untracked satellites, spent rocket stages, debris from satellite collisions, or even natural meteoroids temporarily captured by Earth's gravity.

Loading next visibility...
Identifier
64886, 2025-155L
Orbit
SSO
Country
Flag of TBDTBD
Related business
None
Manufacturer
Unknown
Mission
Operational Civil Communications
Bus & Motor
Unknown
Mass
Unknown
Launch date (UTC)
2025-07-25 (8 months ago)
Launch vehicle
SOYUZ-2-1B
Launch site
Vostochny Cosmodrome (VOSTO)
Object type
Unknown
Shape & HBR
Box, 1.1 m
Radar Cross Section
0.945 m², Medium (>0.1 m² and < 1m²)

Expand to show TLE details & history
Last TLE update: 9 hours ago

TLE from 9 hours ago
0 OBJECT L
1 64886U 25155L   26073.89543061  .00041983  00000-0  12010-2 0  9995
2 64886  97.4394  43.3431 0009633 125.3994 234.8150 15.35797979 66436
Epoch: 2026-03-14T21:29Z
TLE epoch observation values (Epoch: 2026-03-14T21:29:25.204Z)
Latitude
-0.00011°
Longitude
-91.52195°
Altitude
465.462 km
Speed
7.632 km/s
True Right ascension
02h 53m 22s
True Declination
0° 00' 00"
Sunlit
Object was in daylight at epoch
Visualization orbit readout
Latitude
Unknown
Longitude
Unknown
Altitude
Unknown
Speed
Unknown
Apparent Right ascension
Unknown
Apparent Declination
Unknown
Sunlit
N/A
Visualization observer readout
Local Sidereal Time
10:46:52
Azimuth
Unknown
Elevation
Unknown
Doppler factor
Unknown
Orbital elements
Apogee altitude
462.08 km
Perigee altitude
448.915 km
Semi-major axis
6,833.635 km
Eccentricity
0.00096
Inclination
97.4394°
RAAN
43.3431°
Arg. of periapsis
125.3994°
True anomaly
234.72484°
Mean anomaly
234.815°
Eccentric anomaly
234.76992°
Mean motion
3.84207 °/min
Orbital period
93.7 mins
BSTAR
0.001201
Loading maneuver chart data...
Computing Atmospheric mass density...
Loading historical data...
Loading historical data...
Loading historical data...
Loading historical data...
Loading historical data...
Loading historical data...
Loading historical data...

Documentation

Showing up to 5 results
|